[[{"header":{"parameterUnit":"m.s-1","parameterCategory":1,"la1":30.2991,"la2":30.254,"lo1":-89.0895,"lo2":-89.0444,"dy":0.0017,"dx":0.0017,"nx":28,"ny":28,"refTime":"2025-05-21T09:00:00:Z","depth":0,"parameterNumber":2,"parameterNumberName":"U-component_of_WINDS"},"data":[0,0,0,0,0,0,0,0,0,0,0,0,0,0,0,0,0,0,0,0,0,0,0,0,0,0,0,0,0,0,0,0,0,0,0,0,0,0,0,0,0,0,0,0,0,0,0,0,0,0,0,0,0,0,0,0,0,0,-2.9574,-2.9576,0,-2.9827,-2.983,-2.9833,-2.9916,-2.9915,-2.9914,-2.9912,-3.0169,-3.0177,-3.0185,0,0,0,0,0,0,0,0,0,0,0,0,0,-2.916,-2.9167,-2.9573,-2.9577,-2.958,-2.9826,-2.983,-2.9833,-2.9916,-2.9915,-2.9913,-2.9912,-3.0167,-3.0176,-3.0185,0,0,0,0,0,0,0,0,0,0,0,0,0,-2.9369,-2.9169,-2.9573,-2.9651,-2.966,-2.9826,-2.983,-2.9834,-2.9916,-2.9915,-2.9913,-2.9911,-3.0164,-3.0175,-3.0187,-3.0292,0,0,-3.0223,-3.0228,0,0,0,0,0,0,0,0,-2.9357,-2.9384,-2.9636,-2.9646,-2.9657,-2.9838,-2.9778,-2.9988,-2.9917,-2.9819,-2.9912,-2.9911,-3.006,-3.008,-3.0131,-3.0304,-3.0315,-3.0224,-3.0231,-3.0236,-3.0239,0,0,0,0,0,0,0,-2.9342,-2.9373,-2.9674,-2.964,-2.9652,-2.9673,-2.97,-2.9818,-2.9946,-2.9827,-2.9834,-2.9863,-3.0065,-3.012,-3.0138,-3.0319,-3.0223,-3.0234,-3.0241,-3.0246,-3.0591,-3.0593,0,0,0,0,0,0,-2.9315,-2.9361,-2.9666,-2.9681,-2.95,-2.9681,-2.9713,-2.9781,-2.9945,-2.9968,-2.9864,-2.9866,-3.01,-3.0124,-3.0147,-3.0282,-3.0236,-3.0247,-3.0254,-3.0589,-3.0591,-3.0594,0,0,0,0,0,0,-2.9306,-2.9341,-2.9655,-2.9523,-2.9565,-2.969,-2.9767,-2.9787,-2.9842,-2.9972,-2.9995,-2.9896,-3.01,-3.0131,-3.0256,-3.0291,-3.0252,-3.0263,-3.0586,-3.059,-3.0593,-3.055,0,0,0,0,0,0,-2.9294,-2.9338,-2.9379,-2.9523,-2.9571,-2.976,-2.9769,-2.9793,-2.9862,-2.9867,-3.0009,-3.0031,-3.0101,-3.0238,-3.0267,-3.0307,-3.0272,-3.0584,-3.0588,-3.0592,-3.0549,-3.0551,-3.0554,0,0,0,0,0,-2.9278,-2.9357,-2.9381,-2.9417,-2.9626,-2.9762,-2.9789,-2.987,-2.9865,-2.9907,-2.9991,-3.0026,-3.0283,-3.025,-3.0284,-3.0328,-3.0582,-3.0587,-3.0591,-3.0548,-3.0551,-3.0554,0,0,0,0,0,0,-2.9212,-2.9377,-2.9406,-2.9533,-2.9633,-2.9776,-2.9832,-2.987,-2.9973,-2.9973,-3.0068,-3.0099,-3.0217,-3.0285,-3.0245,-3.0438,-3.0434,-3.0446,-3.0389,-3.0393,-3.0396,-3.0376,-3.0282,0,0,0,0,0,-2.9213,-2.931,-2.9448,-2.9547,-2.9596,-2.9705,-2.9767,-2.9821,-2.9927,-2.997,-3.0063,-3.0165,-3.0269,-3.0335,-3.0438,-3.056,-3.0591,-3.0607,-3.0609,-3.061,-3.0619,-3.0688,-3.0697,-3.0609,-3.0609,-3.0609,0,0,-2.9214,-2.9316,-2.9371,-2.9536,-2.962,-2.9718,-2.974,-2.9842,-2.9916,-2.9985,-3.0109,-3.0181,-3.0301,-3.0425,-3.0484,-3.0485,-3.065,-3.0616,-3.0616,-3.0625,-3.0694,-3.0702,-3.0709,-3.0613,-3.0612,-3.0612,0,0,-2.9266,-2.9353,-2.9445,-2.9529,-2.9656,-2.9729,-2.975,-2.9888,-2.9939,-3.0065,-3.0119,-3.0208,-3.0384,-3.0468,-3.0533,-3.0618,-3.0654,-3.0649,-3.0661,-3.0728,-3.0734,-3.0741,-3.0771,-3.078,-3.0657,-3.0657,-3.0657,0,-2.9251,-2.9402,-2.9487,-2.9588,-2.9658,-2.9727,-2.9821,-2.9898,-3.0051,-3.0098,-3.0098,-3.0322,-3.0407,-3.0551,-3.0572,-3.0623,-3.0651,-3.0633,-3.0727,-3.0734,-3.0741,-3.0771,-3.0782,-3.0656,-3.0656,-3.0656,-3.0656,0,-2.9377,-2.948,-2.9539,-2.9687,-2.9765,-2.986,-2.996,-3.0029,-3.0076,-3.0148,-3.0275,-3.0381,-3.0506,-3.0544,-3.0591,-3.0696,-3.0692,-3.0708,-3.0706,-3.0747,-3.0776,-3.0788,-3.0654,-3.0654,-3.0655,-3.0655,0,0,-2.9393,-2.9588,-2.9608,-2.9676,-2.9822,-2.9903,-3.0002,-3.0126,-3.0182,-3.0286,-3.0371,-3.052,-3.0536,-3.061,-3.0667,-3.0725,-3.0785,-3.0734,-3.0738,-3.0739,-3.0907,-3.0893,-3.0905,-3.081,-3.0813,-3.0815,-3.0896,0,-2.9463,-2.9644,-2.9725,-2.9869,-2.9966,-3.0033,-3.012,-3.0218,-3.0288,-3.038,-3.0458,-3.0561,-3.0575,-3.062,-3.0681,-3.0765,-3.082,-3.076,-3.089,-3.0893,-3.0856,-3.092,-3.0906,-3.0978,-3.0908,-3.091,-3.0912,0,-2.9569,-2.9674,-2.9828,-2.9963,-3.0007,-3.0083,-3.0203,-3.029,-3.0403,-3.045,-3.0533,-3.0588,-3.0694,-3.0685,-3.0833,-3.0791,-3.0849,-3.0898,-3.0903,-3.0917,-3.0904,-3.0935,-3.1003,-3.1013,-3.0931,-3.0929,-3.0928,0,-2.9564,-2.9745,-2.986,-2.9916,-3.0077,-3.0129,-3.0198,-3.0309,-3.0379,-3.0483,-3.0529,-3.0645,-3.0708,-3.0796,-3.0879,-3.0865,-3.1019,-3.1017,-3.106,-3.1058,-3.1089,-3.1085,-3.1165,-3.1127,-3.1127,-3.1127,-3.1127,0,-2.9634,-2.9725,-2.986,-2.9931,-3.0036,-3.0128,-3.0228,-3.0302,-3.0401,-3.0487,-3.0553,-3.0632,-3.0738,-3.0831,-3.0898,-3.1009,-3.1038,-3.1078,-3.1094,-3.1072,-3.1066,-3.111,-3.1107,-3.113,-3.1129,-3.1129,-3.1128,0,-2.9645,-2.974,-2.987,-3.0012,-3.005,-3.012,-3.0241,-3.0312,-3.0386,-3.0494,-3.0525,-3.0641,-3.0754,-3.0847,-3.0994,-3.1039,-3.1155,-3.1175,-3.1117,-3.1125,-3.1163,-3.1158,-3.1273,-3.1293,-3.1242,-3.1242,-3.1242,0,-2.9683,-2.9755,-2.9905,-2.9968,-3.0036,-3.0136,-3.0208,-3.0301,-3.0373,-3.0508,-3.0562,-3.068,-3.0779,-3.0956,-3.1053,-3.1166,-3.1188,-3.1221,-3.1205,-3.118,-3.1188,-3.1182,-3.1189,-3.1221,-3.1221,-3.1221,-3.1221,0,-2.9739,-2.9783,-2.9884,-3.0001,-3.0085,-3.0182,-3.028,-3.0328,-3.0439,-3.0516,-3.0633,-3.0709,-3.0861,-3.0976,-3.11,-3.1171,-3.1215,-3.1226,-3.1242,-3.1219,-3.1182,-3.1202,-3.112,-3.1222,-3.1222,-3.1222,-3.1222,-3.1222,-2.9765,-2.9832,-2.9948,-3.0058,-3.0143,-3.0233,-3.0307,-3.0391,-3.049,-3.0621,-3.067,-3.0789,-3.0901,-3.1072,-3.1144,-3.1238,-3.1243,-3.1266,-3.1272,-3.1276,-3.1272,-3.1168,-3.1261,-3.1261,-3.1261,-3.1261,-3.1261,0,-2.9824,-2.9902,-3.0003,-3.0139,-3.0226,-3.0261,-3.0372,-3.0442,-3.0546,-3.0647,-3.0744,-3.0878,-3.099,-3.1097,-3.1215,-3.127,-3.1293,-3.1298,-3.1294,-3.1309,-3.1261,-3.1235,-3.1277,-3.1277,-3.1277,-3.1277,-3.1277,-3.1277,-2.9864,-2.998,-3.0037,-3.0195,-3.0274,-3.0391,-3.0452,-3.0535,-3.0617,-3.0764,-3.0858,-3.0927,-3.1031,-3.1157,-3.1262,-3.129,-3.133,-3.133,-3.1363,-3.1316,-3.1313,-3.131,-3.1286,-3.1338,-3.1338,-3.1403,-3.1404,-3.1404]},{"header":{"parameterUnit":"m.s-1","parameterCategory":1,"la1":30.2991,"la2":30.254,"lo1":-89.0895,"lo2":-89.0444,"dy":0.0017,"dx":0.0017,"nx":28,"ny":28,"refTime":"2025-05-21T09:00:00:Z","depth":0,"parameterNumber":3,"parameterNumberName":"V-component_of_WINDS"},"data":[0,0,0,0,0,0,0,0,0,0,0,0,0,0,0,0,0,0,0,0,0,0,0,0,0,0,0,0,0,0,0,0,0,0,0,0,0,0,0,0,0,0,0,0,0,0,0,0,0,0,0,0,0,0,0,0,0,0,1.2635,1.2635,0,1.2702,1.2703,1.2704,1.2736,1.2736,1.2736,1.2736,1.2803,1.2804,1.2806,0,0,0,0,0,0,0,0,0,0,0,0,0,1.2531,1.2532,1.2635,1.2636,1.2636,1.2702,1.2703,1.2704,1.2736,1.2736,1.2736,1.2736,1.2802,1.2804,1.2806,0,0,0,0,0,0,0,0,0,0,0,0,0,1.2585,1.2533,1.2635,1.266,1.2663,1.2702,1.2703,1.2704,1.2736,1.2736,1.2736,1.2736,1.2801,1.2804,1.2807,1.2824,0,0,1.2815,1.2816,0,0,0,0,0,0,0,0,1.2582,1.2588,1.2656,1.2659,1.2662,1.2711,1.2691,1.2744,1.2736,1.2708,1.2736,1.2736,1.2772,1.2777,1.279,1.2827,1.283,1.2815,1.2817,1.2818,1.2819,0,0,0,0,0,0,0,1.2578,1.2586,1.2661,1.2657,1.2661,1.2668,1.2675,1.2701,1.2739,1.2711,1.2713,1.2721,1.2774,1.2787,1.2791,1.2831,1.2815,1.2817,1.2819,1.282,1.2885,1.2885,0,0,0,0,0,0,1.257,1.2582,1.2659,1.2663,1.2621,1.267,1.2678,1.2695,1.2739,1.2746,1.2721,1.2722,1.2782,1.2788,1.2794,1.2817,1.2818,1.282,1.2822,1.2885,1.2885,1.2885,0,0,0,0,0,0,1.2568,1.2577,1.2657,1.2624,1.2634,1.2671,1.269,1.2697,1.271,1.2747,1.2754,1.2728,1.2783,1.279,1.2816,1.282,1.2822,1.2824,1.2885,1.2885,1.2885,1.2863,0,0,0,0,0,0,1.2565,1.2576,1.2583,1.2624,1.2636,1.2679,1.2691,1.2698,1.2715,1.2717,1.2755,1.2761,1.2783,1.2812,1.2819,1.2823,1.2826,1.2885,1.2885,1.2885,1.2864,1.2863,1.2862,0,0,0,0,0,1.2561,1.2574,1.2584,1.2593,1.2647,1.2679,1.2686,1.2711,1.2715,1.2723,1.2746,1.276,1.2818,1.2814,1.2822,1.2828,1.2884,1.2885,1.2885,1.2864,1.2863,1.2862,0,0,0,0,0,0,1.2533,1.258,1.2591,1.2618,1.2644,1.2684,1.2695,1.2709,1.2734,1.2735,1.2765,1.2773,1.2796,1.2815,1.281,1.2847,1.2853,1.2854,1.2834,1.2833,1.2832,1.2827,1.2828,0,0,0,0,0,1.253,1.2553,1.2592,1.2612,1.2625,1.2657,1.2672,1.269,1.2718,1.2729,1.2754,1.278,1.2804,1.282,1.2844,1.2866,1.2875,1.2874,1.2873,1.2872,1.2873,1.2886,1.2886,1.2886,1.2886,1.2886,0,0,1.2523,1.2552,1.2565,1.2607,1.263,1.2652,1.2666,1.269,1.2706,1.2732,1.2759,1.2778,1.2809,1.2833,1.2845,1.2849,1.2875,1.2872,1.2871,1.2873,1.2886,1.2886,1.2886,1.2886,1.2886,1.2886,0,0,1.2524,1.2548,1.2567,1.2589,1.2623,1.2645,1.2649,1.2687,1.2701,1.2728,1.2748,1.2768,1.2809,1.283,1.2846,1.2853,1.2867,1.286,1.2855,1.2867,1.2867,1.2867,1.2869,1.287,1.2861,1.2861,1.2861,0,1.2512,1.2547,1.2575,1.2597,1.2615,1.264,1.2659,1.2678,1.2718,1.2729,1.2733,1.2785,1.2808,1.2837,1.2839,1.2851,1.2856,1.2856,1.2865,1.2865,1.2866,1.2868,1.2869,1.286,1.286,1.286,1.286,0,1.2531,1.2555,1.2566,1.2605,1.2623,1.2644,1.2673,1.2689,1.2704,1.2725,1.2752,1.278,1.281,1.2818,1.2833,1.2849,1.2851,1.2859,1.2866,1.2864,1.2867,1.2868,1.2859,1.2859,1.2859,1.286,0,0,1.2516,1.2569,1.2573,1.259,1.2629,1.2648,1.2669,1.2699,1.2712,1.2738,1.2756,1.279,1.2798,1.2816,1.2833,1.2844,1.2848,1.2851,1.2853,1.285,1.2867,1.2861,1.2862,1.2857,1.2857,1.2858,1.2865,0,1.2522,1.2562,1.2587,1.2616,1.2639,1.2662,1.268,1.2706,1.2725,1.2746,1.2767,1.2791,1.28,1.2811,1.2822,1.2845,1.2852,1.2845,1.2873,1.2874,1.2866,1.2864,1.2857,1.2863,1.2866,1.2866,1.2867,0,1.2535,1.2561,1.2593,1.2629,1.2639,1.2655,1.2685,1.2705,1.2733,1.2747,1.2767,1.2784,1.2806,1.2811,1.2841,1.2836,1.2849,1.2861,1.2862,1.2866,1.2871,1.2867,1.2865,1.2866,1.2869,1.2869,1.2868,0,1.2521,1.2564,1.2589,1.2603,1.2646,1.2656,1.2674,1.2703,1.272,1.2745,1.2756,1.2783,1.2797,1.2817,1.2841,1.2842,1.2869,1.2876,1.2881,1.288,1.2886,1.2885,1.2885,1.2893,1.2893,1.2893,1.2893,0,1.2525,1.2544,1.2583,1.2598,1.2619,1.2647,1.2667,1.2687,1.2712,1.2731,1.2752,1.2769,1.28,1.282,1.2839,1.2861,1.2867,1.2878,1.2883,1.2877,1.2875,1.2886,1.2886,1.2894,1.2894,1.2893,1.2893,0,1.2513,1.2541,1.2569,1.2607,1.2617,1.2631,1.2663,1.2678,1.2699,1.2722,1.2729,1.2761,1.2786,1.2812,1.2845,1.2858,1.288,1.2886,1.287,1.2873,1.2876,1.2876,1.2884,1.2886,1.2892,1.2892,1.2892,0,1.2515,1.253,1.2569,1.2584,1.2602,1.2625,1.2642,1.2669,1.2685,1.2719,1.273,1.2757,1.278,1.2818,1.2844,1.2869,1.2877,1.2878,1.2881,1.2874,1.2877,1.2876,1.2877,1.2877,1.2877,1.2876,1.2876,0,1.2514,1.2526,1.2551,1.2579,1.2599,1.2623,1.2647,1.2657,1.2689,1.2706,1.2733,1.275,1.2785,1.2811,1.284,1.2857,1.2872,1.2875,1.2878,1.2871,1.2862,1.2867,1.2868,1.2875,1.2875,1.2875,1.2875,1.2875,1.2509,1.2523,1.2553,1.2579,1.26,1.2623,1.2639,1.2661,1.2684,1.2715,1.2729,1.2755,1.2783,1.2823,1.284,1.286,1.2864,1.2868,1.2869,1.2869,1.2868,1.2858,1.2865,1.2865,1.2866,1.2866,1.2866,0,1.2509,1.253,1.2553,1.2587,1.2607,1.2619,1.2647,1.2663,1.2686,1.271,1.2733,1.2762,1.2788,1.2815,1.2841,1.2852,1.286,1.2858,1.2858,1.2862,1.2863,1.2858,1.2852,1.2852,1.2852,1.2852,1.2852,1.2852,1.2512,1.2537,1.2553,1.2588,1.2608,1.2635,1.2649,1.2669,1.2689,1.2722,1.2743,1.2761,1.2786,1.2815,1.2838,1.2846,1.2854,1.2851,1.286,1.2861,1.2862,1.2863,1.2858,1.2853,1.2853,1.2858,1.2858,1.2858]}]]